This demonstration page uses our WeatherBlox Daily Observations layout. Learn more.

Left ArrowRight Arrow

38.20091, -84.87328

Hourly Observations for September 16, 2022

Temp ( °F °C ) Dew Point ( °F °C ) Humidity (%) Winds ( mph kmh ) Pressure ( in mb ) Visibility ( mi km ) Precip ( " mm )
12:53 am 00:53 Clear 60 15.6 59 15 96 96 Calm 30.19 1022 10 16 0.00 0.00
1:53 am 01:53 Clear 59 15 57 13.9 93 93 Calm 30.18 1022 10 16 0.00 0.00
2:53 am 02:53 Clear 58 14.4 57 13.9 97 97 Calm 30.17 1022 10 16 0.00 0.00
3:53 am 03:53 Clear 57 13.9 55 12.8 93 93 Calm 30.16 1022 10 16 0.00 0.00
4:16 am 04:16 Mostly Clear with Mist and Fog 56 13.3 55 12.8 97 97 Calm 30.19 1022 1 1 0.00 0.00
4:28 am 04:28 Clear with Mist and Fog 57 13.9 55 12.8 93 93 Calm 30.19 1022 1 2 0.00 0.00
4:36 am 04:36 Clear 57 13.9 56 13.3 96 96 Calm 30.19 1022 10 16 0.00 0.00
4:53 am 04:53 Clear with Mist and Fog 57 13.9 55 12.8 93 93 Calm 30.17 1022 6 10 0.00 0.00
5:17 am 05:17 Partly Cloudy with Mist and Fog 56 13.3 55 12.8 97 97 NNW 3 6 30.19 1022 2 3 0.00 0.00
5:19 am 05:19 Mostly Clear with Mist and Fog 56 13.3 55 12.8 97 97 NNW 3 6 30.19 1022 1 2 0.00 0.00
5:26 am 05:26 Mostly Clear with Fog 56 13.3 55 12.8 97 97 Calm 30.19 1022 1 1 0.00 0.00
5:56 am 05:56 Cloudy with Mist and Fog 55 12.8 55 12.8 100 100 Calm 30.20 1023 3 5 0.00 0.00
6:00 am 06:00 Cloudy with Mist and Fog 55 12.8 55 12.8 100 100 Calm 30.20 1023 2 2 0.00 0.00
6:11 am 06:11 Cloudy with Mist and Fog 54 12.2 54 12.2 100 100 Calm 30.20 1023 3 4 0.00 0.00
6:18 am 06:18 Mostly Clear with Mist and Fog 54 12.2 54 12.2 100 100 Calm 30.20 1023 1 2 0.00 0.00
6:25 am 06:25 Mostly Clear with Fog 55 12.8 54 12.2 96 96 Calm 30.20 1023 1 1 0.00 0.00
6:35 am 06:35 Partly Cloudy with Mist and Fog 55 12.8 54 12.2 96 96 Calm 30.20 1023 1 2 0.00 0.00
6:41 am 06:41 Partly Cloudy with Mist and Fog 55 12.8 54 12.2 96 96 Calm 30.20 1023 3 5 0.00 0.00
6:53 am 06:53 Clear 54 12.2 53 11.7 97 97 Calm 30.19 1022 10 16 0.00 0.00
7:17 am 07:17 Mostly Clear 54 12.2 53 11.7 97 97 Calm 30.21 1023 10 16 0.00 0.00
7:53 am 07:53 Mostly Sunny 55 12.8 54 12.2 96 96 Calm 30.20 1023 9 14 0.00 0.00
8:29 am 08:29 Partly Cloudy with Mist and Fog 58 14.4 57 13.9 97 97 Calm 30.22 1023 1 1 0.00 0.00
8:41 am 08:41 Partly Cloudy with Fog 59 15 58 14.4 96 96 Calm 30.22 1023 1 1 0.00 0.00
8:49 am 08:49 Partly Cloudy with Fog 61 16 59 15 94 94 Calm 30.21 1023 0 0 0.00 0.00
8:53 am 08:53 Partly Cloudy with Fog 60 15.6 59 15 96 96 Calm 30.21 1023 0 0 0.00 0.00
9:18 am 09:18 Mostly Cloudy with Mist and Fog 62 16.7 61 16.1 96 96 Calm 30.21 1023 3 5 0.00 0.00
9:26 am 09:26 Partly Cloudy with Mist and Fog 63 17.2 62 16.7 97 97 Calm 30.21 1023 5 8 0.00 0.00
9:53 am 09:53 Sunny 67 19.4 62 16.7 84 84 Calm 30.21 1023 10 16 0.00 0.00
10:53 am 10:53 Sunny 72 22.2 64 17.8 76 76 SSE 5 7 30.22 1023 10 16 0.00 0.00
11:53 am 11:53 Sunny 76 24.4 64 17.8 67 67 Calm 30.21 1023 10 16 0.00 0.00
12:53 pm 12:53 Sunny 79 26.1 65 18.3 62 62 VRB 3 6 30.19 1022 10 16 0.00 0.00
1:53 pm 13:53 Sunny 81 27.2 64 17.8 57 57 W 5 7 30.17 1022 10 16 0.00 0.00
2:53 pm 14:53 Sunny 84 28.9 60 15.6 45 45 SE 3 6 30.14 1021 10 16 0.00 0.00
3:53 pm 15:53 Sunny 85 29.4 58 14.4 40 40 E 6 9 30.12 1020 10 16 0.00 0.00
4:53 pm 16:53 Sunny 84 28.9 56 13.3 38 38 S 9 15 30.12 1020 10 16 0.00 0.00
5:53 pm 17:53 Sunny 83 28.3 59 15 44 44 S 6 9 30.11 1020 10 16 0.00 0.00
6:53 pm 18:53 Sunny 81 27.2 62 16.7 53 53 Calm 30.12 1020 10 16 0.00 0.00
7:53 pm 19:53 Mostly Clear 73 22.8 64 17.8 73 73 Calm 30.12 1020 10 16 0.00 0.00
8:53 pm 20:53 Clear 68 20 63 17.2 84 84 Calm 30.13 1020 10 16 0.00 0.00
9:53 pm 21:53 Clear 67 19.4 63 17.2 87 87 Calm 30.14 1021 10 16 0.00 0.00
10:53 pm 22:53 Clear 66 18.9 62 16.7 87 87 Calm 30.14 1021 10 16 0.00 0.00
11:53 pm 23:53 Clear 63 17.2 61 16.1 93 93 Calm 30.14 1021 10 16 0.00 0.00

Powered by AerisWeather